Location: Lachepaillet
(43.4918°N, 1.4874°W)
Time: 02:30:44
(UTC+00:00)

Okean 1 Rocket - Pass Details

Date: 15 May 2026
Orbit: 600 x 626 km, 82.5° (Epoch: 8 June)

Event Time Altitude Azimuth Distance (km) Brightness Sun altitude
Rises 19:55:37 0° 196° (SSW) 2,874 6.3 -5.8°
Reaches altitude 10° 19:57:51 10° 200° (SSW) 1,977 5.5 -6.1°
Maximum altitude 20:02:11 60° 280° (W) 712 3.7 -6.8°
Drops below altitude 10° 20:06:35 10° 1° (N) 2,006 6.2 -7.4°
Sets 20:08:52 0° 5° (N) 2,919 7.0 -7.8°
